Location: Recife
(8.0585°S, 34.8848°W)
Time: 21:11:53
(UTC-03:00)

Vanguard 3 - Pass Details

Date: 20 April 2026
Orbit: 507 x 3205 km, 33.4° (Epoch: 12 May)

Event Time Altitude Azimuth Distance (km) Brightness Sun altitude
Rises 10:14:04 0° 247° (WSW) 5,833 11.3 64.6°
Reaches altitude 10° 10:18:30 10° 236° (SW) 5,200 11.1 65.3°
Maximum altitude 10:31:56 29° 181° (S) 4,562 11.1 67.1°
Drops below altitude 10° 10:47:41 10° 128° (SE) 6,079 11.7 68.9°
Sets 10:53:31 0° 117° (ESE) 6,935 11.9 69.3°
